Weather History for Goshen, IN

Change the Weather History Date:

Saturday, April 19, 2014

  Actual Average Record
Temperature  
Mean Temperature 50 °F -  
Max Temperature 64 °F 62 °F 84 °F (1985)
Min Temperature 36 °F 41 °F 21 °F (1983)
Degree Days  
Heating Degree Days 15    
Moisture  
Dew Point 32 °F    
Average Humidity 54    
Maximum Humidity 83    
Minimum Humidity 33    
Precipitation  
Precipitation 0.00 in - - ()
Sea Level Pressure  
Sea Level Pressure 30.35 in    
Wind  
Wind Speed 8 mph (East)    
Max Wind Speed 14 mph    
Max Gust Speed -    
Visibility 10 miles    
Events      
Averages and records for this station are not official NWS values.
T = Trace of Precipitation, MM = Missing Value Source: NWS Daily Summary

Daily Weather History Graph

Daily Weather History Graph

Search for Another Location

Airport:

Trip Planner

Search our weather history database for the weather conditions in past years. The results will help you decide how hot, cold, wet, or windy it might be!

Date:

Astronomy

Apr. 19, 2014 Rise Set
Actual Time 6:57 AM EDT 8:28 PM EDT
Civil Twilight 6:28 AM EDT 8:57 PM EDT
Nautical Twilight 5:53 AM EDT 9:32 PM EDT
Astronomical Twilight 5:15 AM EDT 10:09 PM EDT
Moon 12:13 AM EDT (4/19) 10:13 AM EDT (4/19)
Length of Visible Light 14h 29m
Length of Day
13h 30m
Waning Gibbous, 79% of the Moon is Illuminated
Apr 19
Waning Gibbous
Apr 22
Last Quarter
Apr 29
New
May 6
First Quarter
May 14
Full

Hourly Weather History & Observations

Time (EDT) Temp. Windchill Dew Point Humidity Pressure Visibility Wind Dir Wind Speed Gust Speed Precip Events Conditions
12:53 AM 37.0 °F 31.6 °F 27.0 °F 67% 30.35 in 10.0 mi North 6.9 mph - N/A   Clear
1:53 AM 37.0 °F 32.4 °F 26.1 °F 65% 30.34 in 10.0 mi North 5.8 mph - N/A   Clear
2:53 AM 36.0 °F 32.1 °F 27.0 °F 70% 30.34 in 10.0 mi North 4.6 mph - N/A   Clear
3:53 AM 36.0 °F 31.1 °F 28.0 °F 73% 30.34 in 10.0 mi NE 5.8 mph - N/A   Clear
5:53 AM 37.9 °F 33.5 °F 32.0 °F 79% 30.35 in 10.0 mi ENE 5.8 mph - N/A   Clear
6:53 AM 37.9 °F 33.5 °F 33.1 °F 83% 30.38 in 10.0 mi ENE 5.8 mph - N/A   Clear
8:53 AM 43.0 °F 36.0 °F 36.0 °F 76% 30.41 in 9.0 mi East 13.8 mph - N/A   Clear
9:53 AM 45.0 °F 38.9 °F 35.1 °F 68% 30.42 in 10.0 mi East 12.7 mph - N/A   Clear
10:53 AM 50.0 °F - 36.0 °F 59% 30.41 in 10.0 mi East 12.7 mph - N/A   Clear
11:53 AM 53.1 °F - 37.0 °F 55% 30.41 in 10.0 mi East 12.7 mph - N/A   Clear
12:53 PM 55.9 °F - 37.0 °F 49% 30.40 in 10.0 mi ESE 10.4 mph - N/A   Clear
1:53 PM 57.9 °F - 37.0 °F 46% 30.38 in 10.0 mi SSE 9.2 mph - N/A   Clear
2:53 PM 60.1 °F - 36.0 °F 41% 30.36 in 10.0 mi ESE 10.4 mph - N/A   Clear
3:53 PM 61.0 °F - 35.1 °F 38% 30.33 in 10.0 mi East 8.1 mph - N/A   Clear
4:53 PM 64.0 °F - 36.0 °F 35% 30.31 in 10.0 mi ESE 10.4 mph - N/A   Clear
5:53 PM 63.0 °F - 33.1 °F 33% 30.29 in 10.0 mi ESE 8.1 mph - N/A   Clear
6:53 PM 62.1 °F - 34.0 °F 35% 30.29 in 10.0 mi SE 12.7 mph - N/A   Clear
7:53 PM 57.0 °F - 32.0 °F 39% 30.30 in 10.0 mi ESE 9.2 mph - N/A   Clear
8:53 PM 53.1 °F - 30.9 °F 43% 30.31 in 10.0 mi ESE 8.1 mph - N/A   Clear
9:53 PM 51.1 °F - 27.0 °F 39% 30.33 in 10.0 mi ESE 10.4 mph - N/A   Clear
10:53 PM 46.0 °F 42.5 °F 27.0 °F 47% 30.33 in 10.0 mi ESE 6.9 mph - N/A   Clear
11:53 PM 45.0 °F 40.6 °F 28.9 °F 53% 30.32 in 10.0 mi ESE 8.1 mph - N/A   Clear